Regional Weather Roundup
Issued by NWS

Home | Current Version | Previous Version | Graphics & Text | Print | Product List | Glossary On
Versions: 1 2 3 4 5 6 7 8 9 10 11 12 13 14 15 16 17 18 19 20 21 22 23 24 25 26 27 28 29 30 31 32 33 34 35 36 37 38 39 40 41 42 43 44 45 46 47 48 49 50
000
ASUS43 KIND 201759
RWRIN

WEATHER ROUNDUP FOR INDIANA
NATIONAL WEATHER SERVICE INDIANAPOLIS IN
200 PM EDT SUN APR 20 2014

NOTE: "FAIR" INDICATES FEW OR NO CLOUDS BELOW 12,000 FEET WITH NO
SIGNIFICANT WEATHER AND/OR OBSTRUCTIONS TO VISIBILITY.

* - STATION DOES NOT REPORT WEATHER SUCH AS PRECIPITATION OR FOG.

+ - STATION NOT QUALITY CONTROLLED BY THE NATIONAL WEATHER SERVICE.
    USE DATA WITH CAUTION...ESPECIALLY DEWPOINT AND RELATIVE
    HUMIDITY OBSERVATIONS.

INZ001>003-010>013-019-020-201900-
NORTHWEST INDIANA

CITY           SKY/WX    TMP DP  RH WIND       PRES   REMARKS
GARY /AIRPORT/ PTSUNNY   72  34  25 S14       30.18F
VALPARAISO     MOSUNNY   70  35  27 S12       30.20F
6HR MIN TEMP:  38; 6HR MAX TEMP:  71;


$$

LMZ046-743>745-201900-
SOUTHERN LAKE MICHIGAN

STATION/POSITION TIME  TEMP WIND        PRES
                       AIR  DIR/SP/G
                 (UTC) (F)  (DEG/KT/KT) (MB)
MICHIGAN CITY    1700   65  180/  7/ 10   N/A

$$

INZ004-005-014>016-021>024-201900-
NORTH CENTRAL INDIANA

CITY           SKY/WX    TMP DP  RH WIND       PRES   REMARKS
GOSHEN         MOSUNNY   68  33  27 S8        30.21F
6HR MIN TEMP:  42; 6HR MAX TEMP:  69;

SOUTH BEND     MOSUNNY   70  32  24 SW7       30.21F
6HR MIN TEMP:  42; 6HR MAX TEMP:  70;


$$

INZ006>009-017-018-025>027-201900-
NORTHEAST INDIANA

CITY           SKY/WX    TMP DP  RH WIND       PRES   REMARKS
ANGOLA *+      SUNNY     66  34  30 S12       30.22F
FORT WAYNE     PTSUNNY   68  32  26 SW7       30.22F
6HR MIN TEMP:  37; 6HR MAX TEMP:  70;


$$

INZ028-029-035-036-043>045-051>053-201900-
WEST CENTRAL INDIANA

CITY           SKY/WX    TMP DP  RH WIND       PRES   REMARKS
GREENCASTLE +  SUNNY     72  37  28 SW5       30.20F
LAFAYETTE      MOSUNNY   71  34  25 N3        30.19F
6HR MIN TEMP:  41; 6HR MAX TEMP:  71;

TERRE HAUTE    SUNNY     73  41  31 W8        30.20F
6HR MIN TEMP:  48; 6HR MAX TEMP:  74;


$$

INZ030>032-037>040-046>048-054>057-064-065-201900-
CENTRAL INDIANA

CITY           SKY/WX    TMP DP  RH WIND       PRES   REMARKS
COLUMBUS       SUNNY     72  36  26 S7        30.21F
INDIANAPOLIS   MOSUNNY   69  35  28 VRB6      30.20F
6HR MIN TEMP:  46; 6HR MAX TEMP:  70;

-EAGLE CREEK   SUNNY     70  36  28 SW8       30.20F
6HR MIN TEMP:  43; 6HR MAX TEMP:  70;

KOKOMO *+        N/A     72  34  25 SW7       30.21F
MT COMFORT *+  MOSUNNY   72  37  28 SW7       30.21F
SHELBYVILLE    SUNNY     73  37  27 S12       30.20F
6HR MIN TEMP:  46; 6HR MAX TEMP:  73;


$$

INZ033-034-041-042-049-050-058-059-201900-
EAST CENTRAL INDIANA

CITY           SKY/WX    TMP DP  RH WIND       PRES   REMARKS
MUNCIE         MOSUNNY   70  33  25 SW9       30.21F
6HR MIN TEMP:  42; 6HR MAX TEMP:  71;


$$

INZ060-061-067>069-081>083-085>088-201900-
SOUTHWEST INDIANA

CITY           SKY/WX    TMP DP  RH WIND       PRES   REMARKS
EVANSVILLE     MOSUNNY   75  37  25 W5        30.20F
6HR MIN TEMP:  49; 6HR MAX TEMP:  75;

HUNTINGBURG *+ SUNNY     73  43  33 CALM      30.20F
6HR MIN TEMP:  46; 6HR MAX TEMP:  73;


$$

INZ062-063-066-070>080-084-089>092-201900-
SOUTH CENTRAL AND SOUTHEAST INDIANA

CITY           SKY/WX    TMP DP  RH WIND       PRES   REMARKS
BLOOMINGTON    SUNNY     73  27  18 VRB6      30.20F
6HR MIN TEMP:  43; 6HR MAX TEMP:  73;

SEYMOUR +      SUNNY     68  19  15 SE3       30.20F

$$




USA.gov is the U.S. government's official web portal to all federal, state and local government web resources and services.